Content
SEND FEEDBACK

Daily
Averages
Monthly
Summary
United States of America

DES PLAINES, ILLINOIS


Home > North America > United States > Illinois
Elevation: 651 feet     Latitude: 42 00N     Longitude: 087 54W

WEATHER
 
SELECT A DAY
Number of Records: 195,054;   Date Range: 7/8/95 - 9/3/14
 
SHARE

PRINT THIS DATA

[ ← Previous Day ]
WEATHER ALMANAC - FEBRUARY 5, 2013
[ Next Day → ]
[ °C ]   °F
Weather ElementAverageHighLow
Temperature23.6 °F30.2 °F (2:50 pm)10 °F (2:52 am)
Dewpoint18.1 °F26.6 °F (2:19 pm)3 °F (1:52 am)
Humidity79.6 %93 % (7:23 am)65 % (1:52 am)
Barometer29.90 in30.11 in (11:52 pm)29.81 in (12:40 pm)
Wind Speed8.2 mph15 mph (9:52 am)
Wind Gust19.6 mph (10:35 am)
Weather ElementAverage
Visibility5.1 mi
Wind DirectionSW (225.1 °)

Weather ElementTotal
Precipitation---
Heating Degree Days44.9 (Base 65)
Averaged from 37 records on February 5, 2013
WEATHER CONDITIONS BREAKOUT
WIND DIRECTION BREAKOUT
WEATHER BY HOUR - FEBRUARY 5, 2013
[ °C ]   °F
Local TimeTemperatureDewpointHumidityBarometerVisibilityWind DirectionWind SpeedGust SpeedPrecipitationEventsConditions
1:52 AM12.9 °F3.0 °F65 %29.96 in10.0 miCalmClear
2:52 AM10.0 °F3.0 °F73 %29.94 in10.0 miCalmClear
3:52 AM10.0 °F5.0 °F80 %29.95 in10.0 miSW (230°)3.5 mphClear
4:52 AM10.9 °F6.1 °F81 %29.93 in10.0 miCalmPartly Cloudy
5:52 AM15.1 °F7.0 °F70 %29.94 in10.0 miSSW (210°)4.6 mphOvercast
6:52 AM17.1 °F10.9 °F77 %29.94 in8.0 miSSW (200°)6.9 mph0.00 inOvercast
7:01 AM17.6 °F12.2 °F79 %29.90 in2.5 miSSW (200°)4.6 mph0.00 inSnowLight Snow
7:06 AM17.6 °F12.2 °F79 %29.90 in1.5 miSouth (190°)5.8 mph0.00 inSnowLight Snow
7:15 AM17.6 °F14.0 °F86 %29.90 in0.8 miSouth (190°)5.8 mph0.00 inSnowLight Snow
7:23 AM17.6 °F15.8 °F93 %29.90 in1.2 miSouth (190°)5.8 mph0.00 inSnowLight Snow
7:52 AM19.0 °F16.0 °F88 %29.91 in1.5 miSouth (180°)8.1 mph0.00 inSnowLight Snow
8:03 AM19.4 °F15.8 °F86 %29.87 in3.0 miSouth (170°)8.1 mph0.00 inOvercast
8:52 AM21.0 °F17.1 °F85 %29.89 in5.0 miSSW (200°)8.1 mph0.00 inOvercast
9:15 AM21.2 °F17.6 °F86 %29.86 in5.0 miSSW (200°)9.2 mphOvercast
9:44 AM23.0 °F17.6 °F80 %29.84 in6.0 miSSW (200°)11.5 mphHaze
9:52 AM24.1 °F19.0 °F81 %29.86 in6.0 miSouth (190°)15.0 mphHaze
10:35 AM26.6 °F19.4 °F74 %29.82 in7.0 miSSW (210°)11.5 mph19.6 mphMostly Cloudy
10:52 AM27.0 °F19.9 °F75 %29.86 in7.0 miSSW (210°)11.5 mph18.4 mphMostly Cloudy
11:52 AM28.0 °F21.0 °F75 %29.85 in7.0 miSW (230°)13.8 mphOvercast
12:40 PM28.4 °F23.0 °F80 %29.81 in1.2 miWest (260°)10.4 mph16.1 mph0.00 inSnowLight Snow
12:45 PM28.4 °F23.0 °F80 %29.81 in0.8 miWSW (250°)8.1 mph16.1 mph0.00 inSnowLight Snow
12:52 PM28.0 °F24.1 °F85 %29.83 in1.5 miWSW (250°)8.1 mph0.00 inSnowLight Snow
1:30 PM28.4 °F24.8 °F86 %29.81 in0.8 miWest (260°)8.1 mph0.00 inSnowLight Snow
1:52 PM28.0 °F25.0 °F88 %29.85 in0.5 miWest (270°)10.4 mph0.00 inFog-SnowSnow
2:19 PM28.4 °F26.6 °F93 %29.81 in1.0 miWSW (250°)6.9 mph0.00 inSnowLight Snow
2:27 PM28.4 °F24.8 °F86 %29.82 in1.2 miWest (270°)9.2 mph0.00 inSnowLight Snow
2:50 PM30.2 °F24.8 °F80 %29.83 in2.5 miWest (270°)9.2 mph0.00 inSnowLight Snow
2:52 PM30.0 °F25.0 °F82 %29.86 in3.0 miWest (280°)11.5 mph0.00 inHaze
3:33 PM30.2 °F24.8 °F80 %29.86 in3.0 miWNW (290°)12.7 mph0.00 inSnowLight Snow
3:52 PM30.0 °F24.1 °F79 %29.89 in3.0 miWest (270°)8.1 mph0.00 inHaze
5:52 PM28.9 °F23.0 °F78 %29.96 in6.0 miWNW (300°)11.5 mph19.6 mphHaze
6:52 PM28.9 °F21.9 °F75 %30.00 in8.0 miNNW (330°)11.5 mph19.6 mphOvercast
7:52 PM28.9 °F21.9 °F75 %30.02 in8.0 miWNW (300°)6.9 mphOvercast
8:52 PM28.9 °F21.9 °F75 %30.04 in8.0 miNW (320°)8.1 mphOvercast
9:52 PM28.9 °F21.0 °F72 %30.06 in9.0 miNNW (330°)6.9 mphOvercast
10:52 PM28.0 °F19.0 °F69 %30.08 in10.0 miNW (320°)13.8 mphOvercast
11:52 PM27.0 °F18.0 °F69 %30.11 in10.0 miNW (310°)8.1 mphOvercast
Hourly data recorded from KPWK, located miles away from Des Plaines, Illinois







STORIES FROM OUR PARTNERS